{"data":{"norad_id":60444,"epoch":"2026-09-21T13:56:49.212096Z","epoch_age_seconds":95416,"freshness":"FRESH","line1":"1 60444U 24144V   26264.58112514 -.00001178  00000+0 -23746-4 0  9994","line2":"2 60444  53.1613  22.7946 0001385  71.2353 288.8800 15.34386720119405","mean_motion":15.3438672,"eccentricity":0.0001385,"inclination_deg":53.1613,"raan_deg":22.7946,"arg_perigee_deg":71.2353,"mean_anomaly_deg":288.88,"bstar":-2.3746e-5,"rev_number":11940,"period_min":93.848570326521,"perigee_km":461.79524961038,"apogee_km":463.69017329046,"semimajor_km":6840.8797114504,"source":"CELESTRAK","updated_at":"2026-09-22T09:00:49.237457Z"}}